Simultaneous Nadir Overpasses (SNOs) Predictions

Prediction of SNOs between GOES-16 and TERRA Satellite Orbit:

Table of predicted SNOs for the next 14.0 days since TLE Epoch: 7/15/2024
Index Date Time (GOES-16) GOES-16 Lat,Lon TERRA Lat,Lon Distance(km) Time Diff (sec)
1 07/15/2024 14:57:12 0.01, -75.20 0.66, -78.22 343.75 80
2 07/17/2024 14:42:21 0.01, -75.20 -0.22, -74.00 136.30 80
3 07/18/2024 02:59:43 -0.01, -75.20 -0.75, -78.88 417.31 80
4 07/20/2024 02:44:51 -0.01, -75.20 0.10, -74.64 63.04 80
5 07/20/2024 15:02:05 0.01, -75.20 0.89, -79.49 486.56 80
6 07/22/2024 14:44:33 0.01, -75.21 0.01, -75.26 5.71 80
7 07/24/2024 14:29:41 -0.00, -75.22 -0.91, -71.03 476.24 80
8 07/25/2024 02:47:01 0.01, -75.22 -0.16, -75.89 76.68 80
9 07/27/2024 02:29:28 0.01, -75.24 0.73, -71.66 406.48 80
10 07/27/2024 14:49:22 -0.01, -75.25 0.24, -76.50 142.42 80
